Wetbulb
50.64 48.30 46.62 46.66 45.63 45.16 44.42 43.60 43.25 42.66 42.64 41.11 40.99 39.76 38.15 38.87 38.12 37.31 37.03 36.28 36.74 37.24
47.88 46.74 45.65 45.32 46.20 44.91 43.93 43.37 42.93 42.22 41.46 41.30 40.62 39.90 39.28 38.10 36.55 36.52 36.47 36.51 36.13 36.29
47.15 46.91 46.89 47.23 45.60 44.19 43.39 43.25 42.65 41.45 40.84 40.61 39.77 38.85 37.34 36.31 36.88 35.86 35.00 34.97 34.03 34.27
47.01 46.52 46.88 46.53 44.87 44.23 42.78 42.93 42.41 41.68 39.53 39.45 37.83 38.38 36.84 36.25 36.93 35.46 34.60 34.10 34.18 34.18
46.12 45.92 45.61 44.73 43.72 43.85 43.06 43.26 41.33 39.59 39.07 39.06 38.96 37.29 36.28 35.47 35.40 34.60 33.74 33.70 33.13 33.09
45.30 45.05 44.51 44.20 43.30 41.63 41.05 40.52 39.43 39.08 38.84 38.91 38.25 36.91 36.63 35.99 35.54 34.85 34.14 33.05 31.02 31.36
44.85 44.21 43.67 42.66 40.84 40.70 40.27 38.41 38.64 38.84 38.74 38.91 38.06 37.68 37.71 36.59 35.33 34.21 32.51 31.97 31.00 30.60
44.74 42.91 42.90 41.55 40.51 40.56 39.42 39.63 38.61 38.12 39.08 38.95 38.40 37.95 37.16 36.01 33.23 31.57 31.13 30.94 30.65 30.24
44.50 42.30 41.58 40.38 40.90 40.36 39.91 39.45 38.36 38.70 38.70 37.94 37.78 36.60 36.88 34.82 31.45 31.63 29.81 28.49 28.35 28.43
41.16 39.97 39.53 39.98 39.21 38.31 37.49 37.94 37.62 37.27 37.16 37.07 37.11 35.82 36.32 34.79 30.47 29.50 28.81 27.56 27.88 28.08
38.64 38.68 38.80 38.73 38.32 38.33 37.99 37.17 36.47 36.46 36.62 35.88 36.08 35.43 35.56 33.70 28.64 27.68 27.98 28.40 28.23 26.54
38.46 38.31 38.94 38.97 38.81 38.12 36.81 35.56 34.80 35.50 35.02 34.17 33.79 35.37 34.50 31.86 27.72 27.20 27.23 29.02 28.91 27.32
39.93 39.63 38.68 37.13 35.93 35.46 34.36 34.57 34.25 33.92 33.99 34.47 32.52 34.33 34.64 31.93 27.93 27.14 26.87 26.89 27.46 29.73
38.20 37.08 36.55 35.24 34.13 33.38 32.86 32.07 30.49 30.57 30.56 31.00 31.27 30.53 34.61 33.91 27.29 27.14 26.75 26.57 25.90 25.55
MSLP
1019.54 1020.12 1020.76 1021.25 1021.96 1022.80 1023.52 1024.03 1023.95 1024.51 1024.89 1025.50 1025.61 1024.93 1025.07 1025.28 1025.61 1025.86 1025.78 1026.06 1025.99 1025.80
1019.76 1020.30 1020.96 1021.76 1022.42 1023.00 1023.64 1023.86 1024.72 1024.78 1024.44 1025.10 1025.11 1024.93 1024.75 1025.27 1025.50 1025.53 1025.71 1025.91 1025.87 1025.86
1020.02 1020.63 1021.31 1022.01 1022.60 1023.07 1023.55 1023.31 1024.01 1024.19 1024.76 1024.68 1024.60 1024.77 1025.05 1025.26 1025.23 1025.30 1025.59 1025.92 1025.88 1025.84
1020.15 1020.70 1021.16 1021.73 1022.26 1022.66 1022.84 1023.27 1023.63 1024.06 1024.12 1024.41 1024.45 1024.59 1024.90 1024.96 1025.04 1025.25 1025.44 1025.76 1025.78 1025.65
1019.43 1019.93 1020.62 1021.25 1021.84 1022.15 1022.59 1022.74 1023.09 1023.59 1023.96 1024.09 1024.32 1024.46 1024.71 1024.93 1025.08 1025.18 1025.34 1025.32 1025.40 1025.43
1019.33 1019.75 1020.39 1020.91 1021.48 1021.95 1022.24 1022.85 1023.12 1023.45 1023.72 1023.76 1023.97 1024.26 1024.46 1024.58 1024.70 1024.85 1024.99 1025.15 1025.26 1025.20
1018.89 1019.53 1020.16 1020.59 1020.91 1021.34 1021.91 1022.52 1022.96 1023.24 1023.32 1023.43 1023.50 1023.72 1024.00 1024.24 1024.46 1024.65 1024.68 1024.77 1024.84 1024.93
1019.66 1020.51 1020.73 1020.83 1021.00 1021.22 1022.01 1022.28 1022.78 1023.04 1023.04 1022.90 1023.08 1023.17 1023.43 1023.73 1023.96 1024.10 1024.45 1024.52 1024.51 1024.40
1019.39 1019.68 1020.21 1020.96 1021.59 1022.02 1022.17 1022.57 1022.71 1022.50 1022.55 1022.61 1022.69 1022.61 1022.84 1023.22 1023.69 1024.03 1024.15 1024.12 1024.19 1024.23
1020.28 1020.56 1021.30 1021.88 1022.34 1022.44 1022.51 1022.36 1022.24 1022.14 1022.25 1022.28 1022.32 1022.33 1022.48 1022.81 1023.24 1023.61 1023.83 1023.93 1023.94 1023.84
1020.78 1021.30 1021.91 1022.31 1022.48 1022.24 1022.11 1021.93 1021.98 1021.92 1021.81 1021.92 1021.98 1022.01 1022.17 1022.48 1022.96 1023.29 1023.42 1023.63 1023.78 1023.72
1021.04 1021.63 1022.12 1021.93 1022.08 1021.96 1022.14 1022.13 1021.98 1021.68 1021.61 1021.76 1021.62 1021.57 1021.72 1022.25 1022.70 1022.92 1022.98 1023.05 1023.21 1023.27
1021.52 1021.66 1021.67 1022.03 1022.32 1022.13 1022.02 1021.88 1021.75 1021.67 1021.55 1021.36 1021.34 1021.32 1021.39 1021.69 1022.07 1022.49 1022.57 1022.56 1022.64 1022.57
1021.92 1022.13 1022.03 1021.88 1021.94 1021.84 1021.76 1021.73 1021.78 1021.69 1021.38 1021.13 1021.05 1021.10 1021.18 1021.28 1021.55 1021.72 1021.98 1022.14 1022.18 1022.22
Wind_Speed
7 5 4 5 6 5 4 3 6 6 5 3 1 3 4 3 3 4 3 2 2 2
8 9 8 7 6 5 6 7 5 4 6 3 2 4 5 4 2 3 1 3 3 2
8 8 8 7 7 7 7 7 6 6 2 2 2 4 3 2 1 3 1 1 2 1
8 8 9 7 6 7 7 6 6 6 5 2 1 4 3 2 2 3 2 1 1 2
12 11 8 7 7 6 6 6 7 6 4 1 1 4 3 3 3 4 3 4 2 4
9 8 8 8 7 7 6 5 5 4 3 3 3 5 5 6 5 5 5 3 2 2
11 10 8 7 7 7 7 7 5 4 4 5 5 6 5 5 5 5 5 4 2 3
6 7 5 5 6 7 6 5 4 4 5 4 5 5 6 6 7 6 5 4 2 4
8 9 8 7 6 4 4 1 3 5 5 6 4 9 11 8 6 5 5 4 4 4
7 8 7 8 7 5 4 5 6 6 6 6 6 9 11 12 5 5 5 5 4 4
10 11 9 6 1 3 4 5 5 6 6 6 5 10 13 12 6 5 5 5 4 5
11 7 3 5 7 6 4 5 6 5 6 6 7 11 13 10 5 5 6 5 5 5
4 4 5 3 5 5 4 5 4 5 6 7 6 10 15 13 5 7 5 5 5 7
3 4 3 4 3 4 5 5 5 6 6 7 7 7 15 16 6 7 5 5 4 4
Wind_Direction
146 124 113 115 119 116 117 94 104 93 104 102 102 103 66 61 63 62 53 356 270 258
113 118 116 104 104 110 114 132 135 131 102 74 23 41 93 99 76 49 6 282 282 271
128 122 124 129 139 136 132 118 117 82 117 174 61 108 105 102 64 79 42 29 50 36
145 147 135 133 137 136 130 126 130 195 174 203 72 164 158 172 132 127 135 242 234 260
146 139 135 133 139 135 160 178 180 165 176 167 190 192 187 185 168 180 194 212 253 281
137 134 136 139 161 173 149 147 154 149 185 225 225 204 199 193 195 192 188 174 167 272
150 153 151 144 125 140 147 150 167 201 220 223 209 201 203 200 199 193 180 182 199 248
82 60 68 85 122 124 146 167 199 230 248 249 214 210 210 195 193 190 198 210 236 209
121 114 111 101 97 83 64 6 251 284 251 245 237 216 212 187 188 199 209 224 257 263
95 84 70 61 57 50 359 301 283 260 258 254 244 215 203 193 190 196 205 227 239 252
79 68 62 68 336 312 256 259 273 270 265 253 256 212 211 192 186 199 208 223 245 235
85 97 154 234 247 266 321 287 275 262 265 258 260 218 200 182 190 211 226 216 222 236
138 214 229 295 307 269 263 257 277 287 281 263 254 216 200 193 186 212 220 225 229 234
253 274 268 273 265 269 274 294 291 281 272 262 238 237 218 213 197 211 212 215 215 210